KE6RLG Weather Reports


time (UTC)temp
F
wind
direction
speed
knots
gust
knots
rain 1hr
in
rain 24hr
in
rain mn
in
humidity
%
barometer
mb
20260507075524 55 0.0 0.0 0.00 0.00 0.00 91 1016.5
20260507075024 55 0.0 0.0 0.00 0.00 0.00 91 1016.5
20260507074544 55 0.0 0.0 0.00 0.00 0.00 91 1016.5
20260507074044 56 0.0 0.0 0.00 0.00 0.00 91 1016.5
20260507073524 56 0.0 0.0 0.00 0.00 0.00 91 1016.6
20260507073024 56 0.0 0.0 0.00 0.00 0.00 91 1016.6
20260507072524 56 0.0 0.0 0.00 0.00 0.00 91 1016.6
20260507072024 56 0.0 0.0 0.00 0.00 0.00 91 1016.7
20260507071524 56 0.0 0.0 0.00 0.00 0.00 91 1016.7
20260507071044 56 0.0 0.0 0.00 0.00 0.00 90 1016.7
20260507070524 56 0.0 0.0 0.00 0.00 0.00 90 1016.7
20260507070024 56 0.0 0.0 0.00 0.00 0.00 90 1016.7
20260507065524 56 0.0 0.0 0.00 0.00 0.00 90 1016.7
20260507065104 56 0.0 0.0 0.00 0.00 0.00 91 1016.7
20260507064524 56 0.0 0.0 0.00 0.00 0.00 90 1016.7
20260507064025 56 197 0.0 0.0 0.00 0.00 0.00 90 1016.7
20260507063525 56 0.0 0.0 0.00 0.00 0.00 90 1016.7
20260507063024 56 0.0 0.0 0.00 0.00 0.00 90 1016.7
20260507062525 56 0.0 0.0 0.00 0.00 0.00 89 1016.7
20260507062024 56 0.0 0.0 0.00 0.00 0.00 89 1016.7
20260507061525 56 0.0 0.0 0.00 0.00 0.00 89 1016.7
20260507061025 56 0.0 0.0 0.00 0.00 0.00 89 1016.7
20260507060545 57 0.0 0.0 0.00 0.00 0.00 89 1016.8
20260507060045 57 0.0 0.0 0.00 0.00 0.00 89 1016.8
20260507055605 57 179 0.0 0.9 0.00 0.00 0.00 89 1016.8
20260507055025 57 48 0.0 0.0 0.00 0.00 0.00 89 1016.8
20260507054605 57 344 0.0 0.9 0.00 0.00 0.00 89 1016.7
20260507054106 57 287 0.9 2.6 0.00 0.00 0.00 89 1016.7
20260507053522 58 300 0.9 5.2 0.00 0.00 0.00 89 1016.6
20260507053038 58 305 1.7 7.0 0.00 0.00 0.00 89 1016.6
20260507052518 58 299 1.7 6.1 0.00 0.00 0.00 89 1016.6
20260507052018 58 315 1.7 7.0 0.00 0.00 0.00 89 1016.6
20260507051517 58 304 3.5 7.0 0.00 0.00 0.00 89 1016.6
20260507051018 58 304 3.5 7.0 0.00 0.00 0.00 89 1016.5
20260507050518 58 308 3.5 7.8 0.00 0.00 0.00 88 1016.5
20260507050017 58 307 3.5 7.0 0.00 0.00 0.00 88 1016.5
20260507045517 58 307 3.5 6.1 0.00 0.00 0.00 88 1016.5
20260507045018 58 302 3.5 7.8 0.00 0.00 0.00 88 1016.5
20260507044518 58 303 4.3 9.6 0.00 0.00 0.00 88 1016.4
20260507044038 58 305 4.3 8.7 0.00 0.00 0.00 88 1016.3
20260507043538 58 307 3.5 7.8 0.00 0.00 0.00 88 1016.3
20260507043018 58 308 4.3 7.8 0.00 0.00 0.00 88 1016.3
20260507042518 58 302 4.3 7.8 0.00 0.00 0.00 88 1016.3
20260507042038 58 306 3.5 7.8 0.00 0.00 0.00 88 1016.4
20260507041518 58 307 5.2 8.7 0.00 0.00 0.00 88 1016.3
20260507041019 58 307 5.2 9.6 0.00 0.00 0.00 88 1016.3
20260507040518 58 307 4.3 9.6 0.00 0.00 0.00 88 1016.3
20260507040039 58 309 3.5 7.8 0.00 0.00 0.00 88 1016.3
20260507035539 58 305 4.3 7.8 0.00 0.00 0.00 88 1016.2
20260507035016 58 313 3.5 7.8 0.00 0.00 0.00 88 1016.2
20260507034519 58 304 4.3 7.8 0.00 0.00 0.00 88 1016.1
20260507034019 58 306 5.2 8.7 0.00 0.00 0.00 88 1016.0
20260507033519 58 309 3.5 7.8 0.00 0.00 0.00 88 1016.0
20260507033019 58 307 4.3 8.7 0.00 0.00 0.00 87 1016.0
20260507032519 58 307 5.2 9.6 0.00 0.00 0.00 87 1016.0
20260507032019 58 303 5.2 7.8 0.00 0.00 0.00 87 1015.9
20260507031519 58 306 4.3 8.7 0.00 0.00 0.00 87 1015.8
20260507031019 58 302 3.5 9.6 0.00 0.00 0.00 87 1015.8
20260507030539 58 306 3.5 8.7 0.00 0.00 0.00 87 1015.8
20260507030020 58 306 3.5 7.0 0.00 0.00 0.00 86 1015.7
20260507025516 59 304 3.5 7.0 0.00 0.00 0.00 86 1015.7
20260507025017 59 303 4.3 7.8 0.00 0.00 0.00 86 1015.7
20260507024516 59 301 3.5 7.8 0.00 0.00 0.00 85 1015.7
20260507024017 59 303 3.5 9.6 0.00 0.00 0.00 85 1015.7
20260507023519 59 302 3.5 7.8 0.00 0.00 0.00 85 1015.7
20260507023020 59 296 3.5 7.8 0.00 0.00 0.00 84 1015.6
20260507022520 59 305 2.6 7.8 0.00 0.00 0.00 84 1015.6
20260507022020 59 293 3.5 9.6 0.00 0.00 0.00 83 1015.5
20260507021520 60 301 3.5 8.7 0.00 0.00 0.00 83 1015.5
20260507021017 60 305 3.5 9.6 0.00 0.00 0.00 82 1015.5
20260507020517 60 313 3.5 8.7 0.00 0.00 0.00 82 1015.5
20260507020017 60 301 3.5 7.8 0.00 0.00 0.00 81 1015.5
20260507015517 60 303 4.3 9.6 0.00 0.00 0.00 81 1015.5
20260507015037 61 305 4.3 9.6 0.00 0.00 0.00 80 1015.5
20260507014517 61 302 3.5 10.4 0.00 0.00 0.00 80 1015.5
20260507014017 61 304 3.5 7.8 0.00 0.00 0.00 80 1015.5
20260507013521 61 305 4.3 7.8 0.00 0.00 0.00 80 1015.5
20260507013020 61 306 5.2 11.3 0.00 0.00 0.00 79 1015.4
20260507012540 61 307 3.5 7.8 0.00 0.00 0.00 78 1015.4
20260507012018 61 307 4.3 8.7 0.00 0.00 0.00 78 1015.4
20260507011518 61 305 5.2 9.6 0.00 0.00 0.00 78 1015.4
20260507011018 62 306 4.3 10.4 0.00 0.00 0.00 77 1015.3
20260507010518 62 312 3.5 7.8 0.00 0.00 0.00 76 1015.4
20260507010018 62 296 3.5 8.7 0.00 0.00 0.00 77 1015.4
20260507005518 62 288 4.3 9.6 0.00 0.00 0.00 76 1015.3
20260507005018 62 300 4.3 9.6 0.00 0.00 0.00 74 1015.3
20260507004518 63 302 5.2 10.4 0.00 0.00 0.00 71 1015.4
20260507004018 63 291 3.5 8.7 0.00 0.00 0.00 69 1015.4
20260507003518 63 314 3.5 7.0 0.00 0.00 0.00 68 1015.5
20260507003018 63 296 3.5 8.7 0.00 0.00 0.00 68 1015.4
20260507002518 63 308 3.5 7.8 0.00 0.00 0.00 66 1015.4
20260507002018 63 311 4.3 9.6 0.00 0.00 0.00 66 1015.6
20260507001518 63 312 2.6 7.0 0.00 0.00 0.00 68 1015.5
20260507001019 63 304 3.5 8.7 0.00 0.00 0.00 70 1015.6
20260507000518 63 299 3.5 9.6 0.00 0.00 0.00 71 1015.6
20260507000039 63 306 3.5 10.4 0.00 0.00 0.00 72 1015.5
20260506235519 63 305 4.3 7.8 0.00 0.00 0.00 72 1015.5
20260506235019 63 323 2.6 6.1 0.00 0.00 0.00 73 1015.6
20260506234519 63 287 2.6 8.7 0.00 0.00 0.00 76 1015.6
20260506234019 63 292 4.3 8.7 0.00 0.00 0.00 73 1015.6
20260506233519 63 300 3.5 8.7 0.00 0.00 0.00 72 1015.6
20260506233019 63 303 3.5 7.8 0.00 0.00 0.00 72 1015.7
20260506232519 63 299 3.5 9.6 0.00 0.00 0.00 73 1015.7
20260506232019 63 311 4.3 9.6 0.00 0.00 0.00 72 1015.7
20260506231520 63 306 4.3 9.6 0.00 0.00 0.00 72 1015.8
20260506231019 63 292 4.3 9.6 0.00 0.00 0.00 73 1015.9
20260506230520 63 292 4.3 8.7 0.00 0.00 0.00 73 1015.9
20260506230017 64 299 5.2 9.6 0.00 0.00 0.00 72 1015.9
20260506225537 64 299 3.5 13.0 0.00 0.00 0.00 73 1015.9
20260506225037 65 292 4.3 13.0 0.00 0.00 0.00 72 1016.0
20260506224517 65 298 4.3 7.8 0.00 0.00 0.00 71 1016.1
20260506224017 66 302 2.6 7.8 0.00 0.00 0.00 67 1016.2
20260506223521 66 315 2.6 7.0 0.00 0.00 0.00 67 1016.2
20260506223020 65 303 1.7 5.2 0.00 0.00 0.00 68 1016.3
20260506222520 65 305 2.6 7.0 0.00 0.00 0.00 70 1016.3
20260506222020 65 311 3.5 7.8 0.00 0.00 0.00 70 1016.4
20260506221517 65 314 3.5 7.0 0.00 0.00 0.00 69 1016.5
20260506221017 65 294 3.5 7.0 0.00 0.00 0.00 69 1016.6
20260506220557 65 301 3.5 7.0 0.00 0.00 0.00 69 1016.7
20260506220038 66 290 3.5 8.7 0.00 0.00 0.00 67 1016.8
20260506215538 66 273 1.7 5.2 0.00 0.00 0.00 68 1016.9
20260506215017 66 289 3.5 7.8 0.00 0.00 0.00 67 1016.9
20260506214517 66 250 2.6 6.1 0.00 0.00 0.00 66 1016.9
20260506214017 66 249 1.7 6.1 0.00 0.00 0.00 67 1017.0
20260506213521 66 263 1.7 6.1 0.00 0.00 0.00 67 1017.0
20260506213020 65 254 1.7 4.3 0.00 0.00 0.00 68 1017.1
20260506212520 65 264 2.6 6.1 0.00 0.00 0.00 69 1017.1
20260506212021 65 275 2.6 7.0 0.00 0.00 0.00 70 1017.1
20260506211518 65 278 2.6 6.1 0.00 0.00 0.00 69 1017.2
20260506211038 65 286 3.5 7.8 0.00 0.00 0.00 69 1017.2
20260506210518 65 228 1.7 4.3 0.00 0.00 0.00 68 1017.2
20260506210018 64 277 2.6 5.2 0.00 0.00 0.00 70 1017.3
20260506205518 64 293 2.6 7.8 0.00 0.00 0.00 69 1017.3
20260506205018 64 282 2.6 7.8 0.00 0.00 0.00 70 1017.3
20260506204521 64 288 2.6 6.1 0.00 0.00 0.00 69 1017.3
20260506204021 64 276 3.5 7.8 0.00 0.00 0.00 70 1017.3
20260506203519 64 313 3.5 7.0 0.00 0.00 0.00 69 1017.4
20260506203059 65 302 3.5 7.8 0.00 0.00 0.00 68 1017.4
20260506202519 65 260 2.6 7.0 0.00 0.00 0.00 66 1017.5
20260506202039 65 291 1.7 6.1 0.00 0.00 0.00 67 1017.6
20260506201518 65 306 3.5 7.0 0.00 0.00 0.00 66 1017.6
20260506201019 66 286 2.6 7.0 0.00 0.00 0.00 65 1017.6
20260506200519 66 287 1.7 8.7 0.00 0.00 0.00 66 1017.7
20260506200019 66 315 1.7 5.2 0.00 0.00 0.00 65 1017.7
20260506195519 67 266 2.6 5.2 0.00 0.00 0.00 63 1017.8
20260506195019 66 279 1.7 5.2 0.00 0.00 0.00 64 1017.8
20260506194519 66 238 2.6 6.1 0.00 0.00 0.00 63 1017.9
20260506194019 66 315 0.9 4.3 0.00 0.00 0.00 64 1017.9
20260506193519 66 202 1.7 5.2 0.00 0.00 0.00 64 1017.9
20260506193019 66 259 1.7 4.3 0.00 0.00 0.00 65 1018.0
20260506192520 66 247 1.7 5.2 0.00 0.00 0.00 65 1018.0
20260506192019 66 264 1.7 5.2 0.00 0.00 0.00 63 1018.0
20260506191519 66 274 1.7 4.3 0.00 0.00 0.00 63 1018.1
20260506191040 65 195 1.7 3.5 0.00 0.00 0.00 64 1018.1
20260506190517 65 197 1.7 7.0 0.00 0.00 0.00 66 1018.2
20260506190020 64 166 2.6 7.8 0.00 0.00 0.00 68 1018.2
20260506185537 64 162 2.6 6.1 0.00 0.00 0.00 68 1018.2
20260506185017 65 180 2.6 7.0 0.00 0.00 0.00 66 1018.2
20260506184517 65 135 1.7 4.3 0.00 0.00 0.00 66 1018.2
20260506184037 65 153 1.7 5.2 0.00 0.00 0.00 66 1018.2
20260506183540 65 143 2.6 5.2 0.00 0.00 0.00 66 1018.2
20260506183020 65 145 1.7 5.2 0.00 0.00 0.00 66 1018.2
20260506182540 66 125 2.6 5.2 0.00 0.00 0.00 63 1018.3
20260506182020 66 164 0.9 4.3 0.00 0.00 0.00 63 1018.3
20260506181538 65 133 1.7 4.3 0.00 0.00 0.00 64 1018.3
20260506181037 65 132 1.7 4.3 0.00 0.00 0.00 63 1018.4
20260506180517 65 127 1.7 4.3 0.00 0.00 0.00 62 1018.4
20260506180058 65 122 1.7 4.3 0.00 0.00 0.00 63 1018.4
20260506175520 65 162 1.7 4.3 0.00 0.00 0.00 64 1018.4
20260506175020 66 169 2.6 5.2 0.00 0.00 0.00 60 1018.3
20260506174521 66 138 0.9 2.6 0.00 0.00 0.00 61 1018.3
20260506174020 65 157 1.7 2.6 0.00 0.00 0.00 61 1018.3
20260506173521 65 180 0.9 3.5 0.00 0.00 0.00 63 1018.3
20260506173021 66 208 1.7 4.3 0.00 0.00 0.00 61 1018.3
20260506172521 66 101 1.7 3.5 0.00 0.00 0.00 59 1018.3
20260506172018 66 118 0.9 6.1 0.00 0.00 0.00 58 1018.2
20260506171518 65 110 0.9 5.2 0.00 0.00 0.00 61 1018.2
20260506171018 65 197 0.9 3.5 0.00 0.00 0.00 62 1018.2
20260506170538 65 184 0.9 4.3 0.00 0.00 0.00 63 1018.2
20260506170018 65 188 1.7 3.5 0.00 0.00 0.00 61 1018.2
20260506165521 65 119 0.9 4.3 0.00 0.00 0.00 61 1018.1
20260506165021 65 95 1.7 3.5 0.00 0.00 0.00 63 1018.1
20260506164518 65 108 1.7 3.5 0.00 0.00 0.00 62 1018.1
20260506164018 65 131 0.9 2.6 0.00 0.00 0.00 64 1018.1
20260506163518 65 97 1.7 5.2 0.00 0.00 0.00 64 1018.1
20260506163019 66 96 1.7 5.2 0.00 0.00 0.00 61 1018.1
20260506162519 66 98 0.9 3.5 0.00 0.00 0.00 62 1018.1
20260506162018 66 104 0.9 4.3 0.00 0.00 0.00 61 1018.1
20260506161518 66 108 0.9 3.5 0.00 0.00 0.00 61 1018.0
20260506161038 66 96 0.9 3.5 0.00 0.00 0.00 61 1018.0
20260506160519 65 92 0.9 3.5 0.00 0.00 0.00 60 1018.1
20260506160019 65 72 0.0 3.5 0.00 0.00 0.00 62 1018.1
20260506155519 64 83 0.9 3.5 0.00 0.00 0.00 64 1018.1
20260506155019 63 89 0.9 4.3 0.00 0.00 0.00 66 1018.1
20260506154519 64 97 2.6 5.2 0.00 0.00 0.00 63 1018.0
20260506154040 64 100 0.9 3.5 0.00 0.00 0.00 63 1018.0
20260506153519 64 99 1.7 4.3 0.00 0.00 0.00 62 1018.0
20260506153020 64 92 0.9 4.3 0.00 0.00 0.00 63 1018.0
20260506152519 63 92 0.9 4.3 0.00 0.00 0.00 64 1018.0
20260506152019 62 101 0.9 3.5 0.00 0.00 0.00 66 1018.0
20260506151519 62 98 1.7 4.3 0.00 0.00 0.00 67 1018.0
20260506151020 62 108 2.6 5.2 0.00 0.00 0.00 66 1017.9
20260506150517 62 101 1.7 5.2 0.00 0.00 0.00 67 1018.0
20260506150016 62 107 2.6 5.2 0.00 0.00 0.00 66 1017.9
20260506145517 62 99 1.7 4.3 0.00 0.00 0.00 66 1017.9
20260506145016 62 108 1.7 5.2 0.00 0.00 0.00 66 1017.9
20260506144537 62 103 1.7 4.3 0.00 0.00 0.00 66 1017.9
20260506144017 63 96 1.7 3.5 0.00 0.00 0.00 66 1017.8
20260506143517 63 106 1.7 5.2 0.00 0.00 0.00 64 1017.7
20260506143020 63 103 0.9 3.5 0.00 0.00 0.00 67 1017.7
20260506142520 61 115 0.0 1.7 0.00 0.00 0.00 81 1017.8
20260506142020 60 0.0 0.0 0.00 0.00 0.00 87 1017.8
20260506141520 59 0.0 0.0 0.00 0.00 0.00 88 1017.7
20260506141020 58 179 0.0 0.0 0.00 0.00 0.00 88 1017.7
20260506140517 56 0.0 0.0 0.00 0.00 0.00 89 1017.7
20260506140023 55 0.0 0.0 0.00 0.00 0.00 89 1017.7
20260506135544 54 0.0 0.0 0.00 0.00 0.00 89 1017.7
20260506135024 53 0.0 0.0 0.00 0.00 0.00 89 1017.6
20260506134544 53 0.0 0.0 0.00 0.00 0.00 89 1017.6
20260506134023 52 0.0 0.0 0.00 0.00 0.00 89 1017.5
20260506133524 52 0.0 0.0 0.00 0.00 0.00 88 1017.5
20260506133024 52 0.0 0.0 0.00 0.00 0.00 88 1017.5
20260506132524 52 0.0 0.0 0.00 0.00 0.00 88 1017.5
20260506132024 51 0.0 0.0 0.00 0.00 0.00 88 1017.5
20260506131605 51 0.0 0.0 0.00 0.00 0.00 88 1017.4
20260506131024 52 94 0.0 0.0 0.00 0.00 0.00 88 1017.3
20260506130524 52 0.0 0.0 0.00 0.00 0.00 88 1017.2
20260506130044 52 265 0.0 0.0 0.00 0.00 0.00 88 1017.2
20260506125524 51 0.0 0.0 0.00 0.00 0.00 87 1017.1
20260506125024 51 215 0.0 0.0 0.00 0.00 0.00 87 1017.1
20260506124524 51 0.0 0.0 0.00 0.00 0.00 87 1017.0
20260506124024 51 0.0 0.0 0.00 0.00 0.00 87 1017.0
20260506123525 52 0.0 0.0 0.00 0.00 0.00 87 1017.0
20260506123045 52 0.0 0.0 0.00 0.00 0.00 87 1017.0
20260506122525 52 0.0 0.0 0.00 0.00 0.00 87 1016.9
20260506122025 52 0.0 0.0 0.00 0.00 0.00 87 1016.8
20260506121525 52 0.0 0.0 0.00 0.00 0.00 86 1016.7
20260506121045 52 0.0 0.0 0.00 0.00 0.00 86 1016.7
20260506120525 52 0.0 0.0 0.00 0.00 0.00 86 1016.7
20260506120025 52 0.0 0.0 0.00 0.00 0.00 86 1016.7
20260506115525 52 0.0 0.0 0.00 0.00 0.00 85 1016.7
20260506115025 52 0.0 0.0 0.00 0.00 0.00 85 1016.7
20260506114526 52 0.0 0.0 0.00 0.00 0.00 85 1016.7
20260506114025 52 0.0 0.0 0.00 0.00 0.00 85 1016.7
20260506113525 52 0.0 0.0 0.00 0.00 0.00 85 1016.7
20260506113025 52 0.0 0.0 0.00 0.00 0.00 85 1016.7
20260506112526 52 0.0 0.0 0.00 0.00 0.00 85 1016.6
20260506112025 52 0.0 0.0 0.00 0.00 0.00 85 1016.6
20260506111525 52 0.0 0.0 0.00 0.00 0.00 85 1016.6
20260506111025 52 0.0 0.0 0.00 0.00 0.00 85 1016.6
20260506110647 53 0.0 0.0 0.00 0.00 0.00 84 1016.6
20260506110026 53 0.0 0.0 0.00 0.00 0.00 84 1016.6
20260506105526 53 0.0 0.0 0.00 0.00 0.00 84 1016.6
20260506105026 53 0.0 0.0 0.00 0.00 0.00 84 1016.6
20260506104526 53 0.0 0.0 0.00 0.00 0.00 84 1016.6
20260506104148 53 0.0 0.0 0.00 0.00 0.00 83 1016.6
20260506103526 53 0.0 0.0 0.00 0.00 0.00 83 1016.6
20260506103027 53 0.0 0.0 0.00 0.00 0.00 83 1016.6
20260506102546 53 266 0.0 0.0 0.00 0.00 0.00 83 1016.6
20260506102026 53 265 0.0 0.9 0.00 0.00 0.00 83 1016.6
20260506101547 53 0.0 0.0 0.00 0.00 0.00 84 1016.7
20260506101026 53 0.0 0.0 0.00 0.00 0.00 84 1016.6
20260506100526 53 290 0.0 0.9 0.00 0.00 0.00 84 1016.6
20260506100026 53 0.0 0.0 0.00 0.00 0.00 84 1016.6
20260506095526 53 299 0.0 0.0 0.00 0.00 0.00 84 1016.5
20260506095026 53 299 0.0 0.0 0.00 0.00 0.00 84 1016.5
20260506094527 53 0.0 0.0 0.00 0.00 0.00 84 1016.6
20260506094027 53 0.0 0.0 0.00 0.00 0.00 83 1016.6
20260506093527 53 0.0 0.0 0.00 0.00 0.00 83 1016.6
20260506093027 53 0.0 0.0 0.00 0.00 0.00 82 1016.6
20260506092527 53 0.0 0.0 0.00 0.00 0.00 83 1016.6
20260506092027 53 0.0 0.0 0.00 0.00 0.00 83 1016.6
20260506091547 53 0.0 0.0 0.00 0.00 0.00 82 1016.7
20260506091027 53 0.0 0.0 0.00 0.00 0.00 82 1016.7
20260506090527 53 0.0 0.0 0.00 0.00 0.00 82 1016.8
20260506090047 53 0.0 0.0 0.00 0.00 0.00 82 1016.8
20260506085527 53 0.0 0.0 0.00 0.00 0.00 82 1016.8
20260506085027 53 0.0 0.0 0.00 0.00 0.00 81 1016.9
20260506084527 53 0.0 0.0 0.00 0.00 0.00 81 1016.9
20260506084028 53 301 0.0 0.9 0.00 0.00 0.00 81 1017.0
20260506083608 53 0.0 0.0 0.00 0.00 0.00 81 1017.0
20260506083048 53 0.0 0.0 0.00 0.00 0.00 81 1017.0
20260506082548 53 310 0.0 0.9 0.00 0.00 0.00 81 1017.0
20260506082028 53 0 0.0 0.9 0.00 0.00 0.00 81 1017.0
20260506081528 53 0.0 0.0 0.00 0.00 0.00 81 1016.9
20260506081028 53 0.0 0.0 0.00 0.00 0.00 81 1017.0
20260506080528 53 0.0 0.0 0.00 0.00 0.00 81 1017.1